Hourly Weather Dominikowice

Today, 15 August, Saturday

Time Temperature Precipitation Wind Pressure Humidity
00:00 +23°C° 0 mm 2 mps 750 mmHg 56%
01:00 +23°C° 0 mm 2 mps 750 mmHg 56%
02:00 +21°C° 0 mm 2 mps 750 mmHg 57%
03:00 +21°C° 0 mm 2 mps 750 mmHg 58%
04:00 +21°C° 0 mm 2 mps 750 mmHg 59%
05:00 +21°C° 0 mm 2 mps 750 mmHg 61%
06:00 +23°C° 0 mm 2 mps 750 mmHg 63%
07:00 +23°C° 0 mm 2 mps 751 mmHg 66%
08:00 +24°C° 0 mm 2 mps 751 mmHg 62%
09:00 +25°C° 0 mm 2 mps 751 mmHg 58%
10:00 +26°C° 0 mm 3 mps 751 mmHg 54%
11:00 +27°C° 0 mm 3 mps 751 mmHg 50%
12:00 +28°C° 0 mm 3 mps 751 mmHg 46%
13:00 +29°C° 0 mm 3 mps 751 mmHg 40%
14:00 +29°C° 0 mm 3 mps 751 mmHg 41%
15:00 +29°C° 0 mm 4 mps 751 mmHg 41%
16:00 +29°C° 0 mm 4 mps 751 mmHg 41%
17:00 +27°C° 0 mm 4 mps 751 mmHg 45%
18:00 +25°C° 0 mm 3 mps 751 mmHg 49%
19:00 +24°C° 0 mm 3 mps 751 mmHg 53%
20:00 +22°C° 0 mm 3 mps 751 mmHg 55%
21:00 +21°C° 0 mm 3 mps 751 mmHg 58%
22:00 +20°C° 0 mm 3 mps 752 mmHg 61%
23:00 +20°C° 0 mm 3 mps 752 mmHg 65%

Tomorrow, 16 August, Sunday

Time Temperature Precipitation Wind Pressure Humidity
00:00 +19°C° 0 mm 2 mps 752 mmHg 69%
01:00 +19°C° 0 mm 2 mps 752 mmHg 73%
02:00 +18°C° 0 mm 2 mps 752 mmHg 75%
03:00 +18°C° 0 mm 2 mps 752 mmHg 77%
04:00 +17°C° 0 mm 2 mps 752 mmHg 78%
05:00 +18°C° 0 mm 3 mps 752 mmHg 75%
06:00 +19°C° 0 mm 3 mps 752 mmHg 72%
07:00 +20°C° 0 mm 4 mps 752 mmHg 68%
08:00 +21°C° 0 mm 4 mps 752 mmHg 63%
09:00 +23°C° 0 mm 4 mps 752 mmHg 59%
10:00 +25°C° 0 mm 5 mps 752 mmHg 54%
11:00 +26°C° 0 mm 5 mps 752 mmHg 51%
12:00 +27°C° 0 mm 5 mps 752 mmHg 47%
13:00 +28°C° 0 mm 5 mps 751 mmHg 44%
14:00 +28°C° 0 mm 5 mps 751 mmHg 44%
15:00 +28°C° 0 mm 5 mps 751 mmHg 43%
16:00 +27°C° 0 mm 5 mps 750 mmHg 43%
17:00 +26°C° 0 mm 4 mps 750 mmHg 48%
18:00 +25°C° 0 mm 4 mps 750 mmHg 53%
19:00 +24°C° 0 mm 3 mps 750 mmHg 58%
20:00 +22°C° 0.1 mm 3 mps 750 mmHg 61%
21:00 +22°C° 0.1 mm 3 mps 750 mmHg 63%
22:00 +21°C° 0.1 mm 3 mps 750 mmHg 66%
23:00 +20°C° 0.3 mm 3 mps 750 mmHg 70%

Day after tomorrow, 17 August, Monday

Time Temperature Precipitation Wind Pressure Humidity
00:00 +20°C° 0.3 mm 3 mps 750 mmHg 75%
01:00 +19°C° 0.3 mm 3 mps 750 mmHg 79%
02:00 +19°C° 0.1 mm 3 mps 749 mmHg 81%
03:00 +18°C° 0.1 mm 3 mps 749 mmHg 84%
04:00 +18°C° 0.1 mm 3 mps 749 mmHg 86%
05:00 +19°C° 0.9 mm 4 mps 749 mmHg 85%
06:00 +19°C° 0.9 mm 4 mps 749 mmHg 83%
07:00 +20°C° 0.9 mm 4 mps 749 mmHg 81%
08:00 +21°C° 0.4 mm 4 mps 748 mmHg 77%
09:00 +23°C° 0.4 mm 4 mps 748 mmHg 72%
10:00 +25°C° 0.4 mm 4 mps 748 mmHg 67%
11:00 +26°C° 0.2 mm 3 mps 748 mmHg 63%
12:00 +27°C° 0.2 mm 3 mps 747 mmHg 59%
13:00 +28°C° 0.2 mm 3 mps 747 mmHg 55%
14:00 +28°C° 0.3 mm 2 mps 747 mmHg 54%
15:00 +28°C° 0.3 mm 2 mps 746 mmHg 54%
16:00 +28°C° 0.3 mm 2 mps 746 mmHg 54%
17:00 +27°C° 0.1 mm 2 mps 746 mmHg 58%
18:00 +26°C° 0.1 mm 2 mps 746 mmHg 63%
19:00 +25°C° 0.1 mm 2 mps 746 mmHg 68%
20:00 +24°C° 0.2 mm 2 mps 746 mmHg 72%
21:00 +23°C° 0.2 mm 2 mps 746 mmHg 76%
22:00 +21°C° 0.2 mm 2 mps 746 mmHg 80%
23:00 +21°C° 0 mm 2 mps 746 mmHg 81%

18 August, Tuesday

Time Temperature Precipitation Wind Pressure Humidity
00:00 +21°C° 0 mm 2 mps 746 mmHg 82%
01:00 +20°C° 0 mm 2 mps 745 mmHg 83%
02:00 +21°C° 0 mm 1 mps 745 mmHg 84%
03:00 +21°C° 0 mm 1 mps 745 mmHg 84%
04:00 +21°C° 0 mm 1 mps 745 mmHg 85%
05:00 +21°C° 0 mm 1 mps 745 mmHg 82%
06:00 +22°C° 0 mm 1 mps 745 mmHg 80%
07:00 +23°C° 0 mm 1 mps 745 mmHg 77%
08:00 +24°C° 0.1 mm 1 mps 745 mmHg 72%
09:00 +25°C° 0.1 mm 2 mps 745 mmHg 67%
10:00 +27°C° 0.1 mm 3 mps 745 mmHg 62%
11:00 +27°C° 0.7 mm 3 mps 745 mmHg 61%
12:00 +27°C° 0.7 mm 4 mps 745 mmHg 60%
13:00 +27°C° 0.7 mm 5 mps 745 mmHg 59%
14:00 +27°C° 0.6 mm 5 mps 745 mmHg 63%
15:00 +26°C° 0.6 mm 5 mps 745 mmHg 66%
16:00 +25°C° 0.6 mm 5 mps 744 mmHg 70%
17:00 +23°C° 0.2 mm 4 mps 744 mmHg 74%
18:00 +22°C° 0.2 mm 3 mps 744 mmHg 79%
19:00 +21°C° 0.2 mm 2 mps 744 mmHg 83%
20:00 +21°C° 0 mm 2 mps 745 mmHg 83%
21:00 +20°C° 0 mm 2 mps 745 mmHg 84%
22:00 +20°C° 0 mm 3 mps 745 mmHg 85%
23:00 +20°C° 0 mm 3 mps 745 mmHg 85%

19 August, Wednesday

Time Temperature Precipitation Wind Pressure Humidity
00:00 +19°C° 0 mm 3 mps 745 mmHg 86%
01:00 +19°C° 0 mm 3 mps 745 mmHg 86%
02:00 +19°C° 0 mm 3 mps 745 mmHg 86%
03:00 +19°C° 0 mm 3 mps 744 mmHg 86%
04:00 +18°C° 0 mm 3 mps 744 mmHg 86%
05:00 +19°C° 0 mm 3 mps 745 mmHg 84%
06:00 +19°C° 0 mm 4 mps 745 mmHg 83%
07:00 +19°C° 0 mm 4 mps 745 mmHg 81%
08:00 +21°C° 0 mm 4 mps 745 mmHg 76%
09:00 +22°C° 0 mm 4 mps 745 mmHg 71%
10:00 +23°C° 0 mm 5 mps 745 mmHg 66%
11:00 +25°C° 0.1 mm 5 mps 745 mmHg 62%
12:00 +26°C° 0.1 mm 5 mps 745 mmHg 58%
13:00 +27°C° 0.1 mm 5 mps 745 mmHg 54%
14:00 +27°C° 0.1 mm 5 mps 745 mmHg 54%
15:00 +27°C° 0.1 mm 4 mps 745 mmHg 53%
16:00 +27°C° 0.1 mm 4 mps 744 mmHg 53%
17:00 +26°C° 0.1 mm 4 mps 744 mmHg 59%
18:00 +24°C° 0.1 mm 3 mps 745 mmHg 64%
19:00 +23°C° 0.1 mm 2 mps 745 mmHg 70%
20:00 +21°C° 0 mm 2 mps 745 mmHg 73%
21:00 +21°C° 0 mm 2 mps 745 mmHg 75%
22:00 +20°C° 0 mm 2 mps 745 mmHg 78%
23:00 +19°C° 0 mm 2 mps 745 mmHg 80%

20 August, Thursday

Time Temperature Precipitation Wind Pressure Humidity
00:00 +19°C° 0 mm 2 mps 745 mmHg 82%
01:00 +19°C° 0 mm 2 mps 746 mmHg 84%
02:00 +18°C° 0 mm 2 mps 746 mmHg 85%
03:00 +18°C° 0 mm 2 mps 746 mmHg 87%
04:00 +17°C° 0 mm 2 mps 746 mmHg 88%
05:00 +18°C° 0 mm 2 mps 746 mmHg 85%
06:00 +19°C° 0 mm 2 mps 746 mmHg 81%
07:00 +20°C° 0 mm 2 mps 747 mmHg 77%
08:00 +21°C° 0 mm 2 mps 747 mmHg 70%
09:00 +24°C° 0 mm 2 mps 747 mmHg 62%
10:00 +25°C° 0 mm 3 mps 748 mmHg 54%
11:00 +26°C° 0 mm 3 mps 748 mmHg 51%
12:00 +27°C° 0 mm 2 mps 747 mmHg 48%
13:00 +27°C° 0 mm 2 mps 747 mmHg 44%
14:00 +28°C° 0 mm 2 mps 747 mmHg 44%
15:00 +28°C° 0 mm 2 mps 747 mmHg 44%
16:00 +28°C° 0 mm 2 mps 747 mmHg 44%
17:00 +27°C° 0 mm 1 mps 748 mmHg 48%
18:00 +25°C° 0 mm 1 mps 748 mmHg 53%
19:00 +24°C° 0 mm 1 mps 748 mmHg 58%
20:00 +23°C° 0 mm 1 mps 748 mmHg 59%
21:00 +23°C° 0 mm 1 mps 749 mmHg 60%
22:00 +22°C° 0 mm 1 mps 749 mmHg 61%
23:00 +21°C° 0 mm 2 mps 749 mmHg 61%
Show more